| time (UTC) | temp F | wind direction | speed MPH | gust MPH | rain 1hr in | rain 24hr in | rain mn in | humidity % | barometer mb |
| 20260508033026 | 49 | 62 | 0.0 | 2.0 | 0.05 | 0.05 | 0.05 | 86 | 1013.6 |
| 20260508031531 | 49 | 48 | 5.0 | 11.0 | 0.05 | 0.05 | 0.05 | 85 | 1013.5 |
| 20260508030024 | 50 | 26 | 9.0 | 12.0 | 0.00 | 0.00 | 0.00 | 80 | 1014.0 |
| 20260508024547 | 51 | 25 | 11.0 | 20.0 | 0.00 | 0.00 | 0.00 | 77 | 1013.1 |
| 20260508023023 | 52 | 9 | 13.0 | 20.0 | 0.00 | 0.00 | 0.00 | 75 | 1012.8 |
| 20260508021522 | 57 | 34 | 18.0 | 23.0 | 0.00 | 0.00 | 0.00 | 63 | 1012.4 |
| 20260508020019 | 58 | 20 | 6.0 | 9.0 | 0.00 | 0.00 | 0.00 | 57 | 1011.6 |
| 20260508014523 | 58 | 3 | 7.0 | 13.0 | 0.00 | 0.00 | 0.00 | 56 | 1011.5 |
| 20260508013022 | 59 | 31 | 5.0 | 10.0 | 0.00 | 0.00 | 0.00 | 55 | 1011.1 |
| 20260508011521 | 60 | 334 | 2.0 | 7.0 | 0.00 | 0.00 | 0.00 | 58 | 1010.8 |
| 20260508010019 | 60 | 44 | 4.0 | 9.0 | 0.00 | 0.00 | 0.00 | 59 | 1010.6 |
| 20260508004535 | 60 | 43 | 7.0 | 11.0 | 0.00 | 0.00 | 0.00 | 60 | 1010.7 |
| 20260508003017 | 61 | 4 | 8.0 | 14.0 | 0.00 | 0.00 | 0.00 | 56 | 1010.6 |
| 20260508001529 | 60 | 12 | 10.0 | 16.0 | 0.00 | 0.00 | 0.00 | 56 | 1010.5 |
| 20260508000016 | 59 | 351 | 8.0 | 13.0 | 0.00 | 0.00 | 0.00 | 58 | 1010.3 |
| 20260507234515 | 59 | 346 | 9.0 | 15.0 | 0.00 | 0.00 | 0.00 | 58 | 1010.6 |
| 20260507233014 | 60 | 9 | 12.0 | 17.0 | 0.00 | 0.00 | 0.00 | 58 | 1010.3 |
| 20260507231514 | 61 | 5 | 15.0 | 21.0 | 0.00 | 0.00 | 0.00 | 57 | 1010.3 |
| 20260507230013 | 61 | 357 | 15.0 | 24.0 | 0.00 | 0.00 | 0.00 | 54 | 1010.6 |
| 20260507224514 | 62 | 30 | 17.0 | 23.0 | 0.00 | 0.00 | 0.00 | 54 | 1010.1 |
| 20260507223012 | 63 | 22 | 16.0 | 22.0 | 0.00 | 0.00 | 0.00 | 51 | 1010.0 |
| 20260507221512 | 61 | 11 | 14.0 | 22.0 | 0.00 | 0.00 | 0.00 | 57 | 1010.3 |
| 20260507220012 | 61 | 13 | 9.0 | 16.0 | 0.00 | 0.00 | 0.00 | 59 | 1010.5 |
| 20260507214507 | 62 | 4 | 13.0 | 21.0 | 0.00 | 0.00 | 0.00 | 54 | 1010.8 |
| 20260507213009 | 63 | 21 | 17.0 | 24.0 | 0.00 | 0.00 | 0.00 | 48 | 1010.3 |
| 20260507211507 | 62 | 347 | 10.0 | 21.0 | 0.00 | 0.00 | 0.00 | 47 | 1010.8 |
| 20260507210005 | 64 | 25 | 7.0 | 14.0 | 0.00 | 0.00 | 0.00 | 43 | 1010.6 |
| 20260507204505 | 66 | 26 | 8.0 | 17.0 | 0.00 | 0.00 | 0.00 | 40 | 1010.4 |
| 20260507203002 | 67 | 28 | 4.0 | 18.0 | 0.00 | 0.00 | 0.00 | 39 | 1010.4 |
| 20260507201600 | 67 | 19 | 5.0 | 12.0 | 0.00 | 0.00 | 0.00 | 38 | 1010.4 |
| 20260507194615 | 66 | 35 | 10.0 | 15.0 | 0.00 | 0.00 | 0.00 | 40 | 1010.6 |
| 20260507193057 | 64 | 29 | 6.0 | 10.0 | 0.00 | 0.00 | 0.00 | 42 | 1010.7 |
| 20260507191552 | 63 | 23 | 7.0 | 16.0 | 0.00 | 0.00 | 0.00 | 40 | 1010.9 |
| 20260507190056 | 65 | 37 | 8.0 | 13.0 | 0.00 | 0.00 | 0.00 | 39 | 1011.0 |
| 20260507184550 | 66 | 30 | 4.0 | 12.0 | 0.00 | 0.00 | 0.00 | 35 | 1011.1 |
| 20260507183048 | 65 | 47 | 4.0 | 11.0 | 0.00 | 0.00 | 0.00 | 36 | 1011.2 |
| 20260507181546 | 65 | 22 | 7.0 | 13.0 | 0.00 | 0.00 | 0.00 | 36 | 1011.4 |
| 20260507180045 | 64 | 326 | 2.0 | 10.0 | 0.00 | 0.00 | 0.00 | 36 | 1011.6 |
| 20260507174546 | 64 | 140 | 1.0 | 10.0 | 0.00 | 0.00 | 0.00 | 37 | 1011.7 |
| 20260507173110 | 65 | 337 | 2.0 | 7.0 | 0.00 | 0.00 | 0.00 | 36 | 1011.9 |
| 20260507171542 | 63 | 56 | 1.0 | 6.0 | 0.00 | 0.00 | 0.00 | 37 | 1012.3 |
| 20260507170039 | 62 | 158 | 1.0 | 6.0 | 0.00 | 0.00 | 0.00 | 36 | 1012.7 |
| 20260507164535 | 60 | 21 | 4.0 | 8.0 | 0.00 | 0.00 | 0.00 | 37 | 1013.1 |
| 20260507163029 | 60 | 71 | 0.0 | 10.0 | 0.00 | 0.00 | 0.00 | 36 | 1013.2 |
| 20260507161529 | 59 | 52 | 6.0 | 9.0 | 0.00 | 0.00 | 0.00 | 34 | 1013.6 |
| 20260507160025 | 57 | 51 | 3.0 | 7.0 | 0.00 | 0.00 | 0.00 | 41 | 1013.7 |
| 20260507154526 | 57 | 50 | 2.0 | 8.0 | 0.00 | 0.00 | 0.00 | 38 | 1013.7 |
| 20260507153023 | 56 | 49 | 1.0 | 5.0 | 0.00 | 0.00 | 0.00 | 36 | 1013.9 |
| 20260507151521 | 56 | 106 | 0.0 | 4.0 | 0.00 | 0.00 | 0.00 | 35 | 1014.0 |
| 20260507150032 | 55 | 149 | 3.0 | 7.0 | 0.00 | 0.00 | 0.00 | 36 | 1014.0 |
| 20260507144515 | 54 | 157 | 4.0 | 8.0 | 0.00 | 0.00 | 0.00 | 34 | 1013.9 |
| 20260507143012 | 53 | 168 | 3.0 | 6.0 | 0.00 | 0.00 | 0.00 | 35 | 1014.2 |
| 20260507141510 | 52 | 197 | 1.0 | 3.0 | 0.00 | 0.00 | 0.00 | 38 | 1014.3 |
| 20260507140006 | 48 | 211 | 0.0 | 1.0 | 0.00 | 0.00 | 0.00 | 39 | 1014.5 |
| 20260507134506 | 48 | 323 | 0.0 | 2.0 | 0.00 | 0.00 | 0.00 | 39 | 1014.8 |
| 20260507133006 | 47 | 360 | 5.0 | 10.0 | 0.00 | 0.00 | 0.00 | 38 | 1015.1 |
| 20260507131504 | 47 | 259 | 0.0 | 3.0 | 0.00 | 0.00 | 0.00 | 39 | 1014.6 |
| 20260507130004 | 46 | 241 | 3.0 | 7.0 | 0.00 | 0.00 | 0.00 | 40 | 1015.0 |
| 20260507124502 | 46 | 138 | 0.0 | 0.0 | 0.00 | 0.00 | 0.00 | 41 | 1014.3 |
| 20260507123002 | 46 | 244 | 1.0 | 2.0 | 0.00 | 0.00 | 0.00 | 40 | 1015.1 |
| 20260507121502 | 46 | 52 | 0.0 | 9.0 | 0.00 | 0.00 | 0.00 | 40 | 1014.8 |
| 20260507120000 | 47 | 23 | 8.0 | 12.0 | 0.00 | 0.00 | 0.00 | 41 | 1015.1 |
| 20260507114611 | 49 | 15 | 4.0 | 9.0 | 0.00 | 0.00 | 0.00 | 46 | 1014.7 |
| 20260507113057 | 47 | 64 | 0.0 | 2.0 | 0.00 | 0.00 | 0.00 | 47 | 1014.3 |
| 20260507111600 | 46 | 125 | 0.0 | 3.0 | 0.00 | 0.00 | 0.00 | 47 | 1014.4 |
| 20260507110057 | 46 | 115 | 0.0 | 3.0 | 0.00 | 0.00 | 0.00 | 44 | 1014.3 |
| 20260507104554 | 47 | 329 | 0.0 | 2.0 | 0.00 | 0.00 | 0.00 | 43 | 1014.4 |
| 20260507103058 | 47 | 155 | 1.0 | 5.0 | 0.00 | 0.00 | 0.00 | 45 | 1014.3 |
| 20260507101554 | 48 | 126 | 0.0 | 1.0 | 0.00 | 0.00 | 0.00 | 43 | 1014.2 |
| 20260507100052 | 47 | 154 | 0.0 | 3.0 | 0.00 | 0.00 | 0.00 | 40 | 1014.4 |
| 20260507094557 | 46 | 122 | 2.0 | 7.0 | 0.00 | 0.00 | 0.00 | 41 | 1013.9 |
| 20260507093046 | 44 | 124 | 0.0 | 6.0 | 0.00 | 0.00 | 0.00 | 47 | 1014.1 |
| 20260507091544 | 44 | 116 | 0.0 | 2.0 | 0.00 | 0.00 | 0.00 | 51 | 1014.1 |
| 20260507090044 | 45 | 133 | 2.0 | 4.0 | 0.00 | 0.00 | 0.00 | 43 | 1014.0 |
| 20260507084542 | 44 | 99 | 0.0 | 1.0 | 0.00 | 0.00 | 0.00 | 43 | 1014.2 |
| 20260507083041 | 44 | 165 | 1.0 | 3.0 | 0.00 | 0.00 | 0.00 | 45 | 1014.2 |
| 20260507081542 | 45 | 149 | 0.0 | 2.0 | 0.00 | 0.00 | 0.00 | 38 | 1014.1 |
| 20260507080038 | 44 | 127 | 1.0 | 2.0 | 0.00 | 0.00 | 0.00 | 41 | 1014.1 |
| 20260507074535 | 43 | 260 | 1.0 | 5.0 | 0.00 | 0.00 | 0.00 | 43 | 1014.2 |
| 20260507073034 | 41 | 142 | 0.0 | 1.0 | 0.00 | 0.00 | 0.00 | 46 | 1014.1 |
| 20260507071536 | 40 | 279 | 0.0 | 1.0 | 0.00 | 0.00 | 0.00 | 47 | 1014.8 |
| 20260507070041 | 41 | 299 | 0.0 | 1.0 | 0.00 | 0.00 | 0.00 | 46 | 1014.5 |
| 20260507064526 | 42 | 101 | 0.0 | 1.0 | 0.00 | 0.00 | 0.00 | 46 | 1014.0 |
| 20260507063024 | 43 | 150 | 0.0 | 2.0 | 0.00 | 0.00 | 0.00 | 42 | 1013.8 |
| 20260507061523 | 41 | 147 | 1.0 | 2.0 | 0.00 | 0.00 | 0.00 | 44 | 1013.9 |
| 20260507060021 | 41 | 229 | 0.0 | 1.0 | 0.00 | 0.00 | 0.00 | 43 | 1013.5 |
| 20260507054519 | 43 | 243 | 1.0 | 2.0 | 0.00 | 0.00 | 0.00 | 41 | 1013.6 |
| 20260507053019 | 46 | 221 | 0.0 | 1.0 | 0.00 | 0.00 | 0.00 | 38 | 1013.5 |
| 20260507051519 | 44 | 204 | 0.0 | 1.0 | 0.00 | 0.00 | 0.00 | 40 | 1013.6 |
| 20260507050027 | 43 | 182 | 0.0 | 2.0 | 0.00 | 0.00 | 0.00 | 41 | 1013.6 |
| 20260507044517 | 44 | 215 | 0.0 | 1.0 | 0.00 | 0.00 | 0.00 | 39 | 1013.5 |
| 20260507043017 | 47 | 193 | 0.0 | 1.0 | 0.00 | 0.00 | 0.00 | 36 | 1013.5 |
| 20260507041515 | 49 | 130 | 0.0 | 1.0 | 0.00 | 0.00 | 0.00 | 35 | 1013.5 |
| 20260507040014 | 52 | 141 | 1.0 | 5.0 | 0.00 | 0.00 | 0.00 | 32 | 1013.6 |
| 20260507034519 | 52 | 132 | 1.0 | 6.0 | 0.00 | 0.00 | 0.00 | 32 | 1013.4 |